Date String (YYYY-MM-DD hh:mm:ss) UTC,Instrument flags,Ambient pressure (hPa),Sample flow (lpm),Bypass flow (lpm),Sample temperature (°C),Ambient temperature (°C),ASC tube jacket temperature (°C),LED temperature (°C),Box temperature (°C),Sample RH (%),Span deviation,Mass concentration (μg/m³),Mass concentration (μg/m³),Mass concentration (μg/m³)
DateTimeUTC,F1_M11,P_M11,Q1_M11,Q2_M11,T1_M11,T2_M11,T3_M11,T4_M11,T5_M11,U1_M11,ZSPAN_M11,X2_M11,X0_M11,X1_M11
2021-11-22 05:00:00,,0832.3,5.00,0.00,25.8,24.9,00.0,34.9,27.6,09.3,0000.0,0003.71,0007.51,0003.41
2021-11-22 05:01:00,,0832.3,4.99,0.00,25.9,24.9,00.0,34.9,27.6,09.2,0000.0,0003.74,0007.50,0003.45
2021-11-22 05:02:00,,0832.3,4.99,0.00,25.8,24.9,00.0,34.9,27.6,09.2,0000.0,0003.78,0007.13,0003.47
2021-11-22 05:03:00,,0832.2,5.01,0.00,25.8,24.9,00.0,34.9,27.6,09.1,0000.0,0003.83,0007.28,0003.48
2021-11-22 05:04:00,,0832.2,5.00,0.00,25.8,24.9,00.0,34.9,27.6,09.0,0000.0,0003.84,0006.94,0003.49
2021-11-22 05:05:00,,0832.2,4.99,0.00,25.8,24.9,00.0,34.9,27.6,09.1,0000.0,0003.83,0006.83,0003.50
2021-11-22 05:06:00,,0832.1,5.01,0.00,25.8,24.9,00.0,34.9,27.6,09.1,0000.0,0003.84,0006.78,0003.51
2021-11-22 05:07:00,,0832.1,5.00,0.00,25.8,24.9,00.0,34.9,27.6,09.1,0000.0,0003.87,0006.93,0003.53
2021-11-22 05:08:00,,0832.1,4.99,0.00,25.8,24.9,00.0,34.9,27.6,09.1,0000.0,0003.89,0007.36,0003.53
2021-11-22 05:09:00,,0832.2,5.01,0.00,25.8,24.9,00.0,34.9,27.6,09.2,0000.0,0003.90,0007.50,0003.53
2021-11-22 05:10:00,,0832.3,4.99,0.00,25.8,24.9,00.0,34.8,27.6,09.2,0000.0,0003.91,0007.42,0003.52
2021-11-22 05:11:00,,0832.3,5.00,0.00,25.8,24.9,00.0,34.8,27.6,09.1,0000.0,0003.92,0007.50,0003.51
2021-11-22 05:12:00,,0832.4,5.00,0.00,25.8,24.9,00.0,34.8,27.6,09.0,0000.0,0003.91,0007.50,0003.50
2021-11-22 05:13:00,,0832.4,4.99,0.00,25.8,24.9,00.0,34.8,27.6,09.0,0000.0,0003.92,0007.54,0003.50
2021-11-22 05:14:00,,0832.3,5.00,0.00,25.8,24.9,00.0,34.8,27.6,09.0,0000.0,0003.88,0007.53,0003.48
2021-11-22 05:15:00,,0832.2,5.01,0.00,25.8,24.8,00.0,34.8,27.6,09.1,0000.0,0003.87,0007.50,0003.49
2021-11-22 05:16:00,,0832.2,5.00,0.00,25.8,24.9,00.0,34.8,27.6,09.1,0000.0,0003.89,0007.91,0003.50
2021-11-22 05:17:00,,0832.3,4.99,0.00,25.8,24.9,00.0,34.8,27.6,09.0,0000.0,0003.89,0008.50,0003.50
2021-11-22 05:18:00,,0832.2,4.99,0.00,25.8,24.9,00.0,34.8,27.6,09.0,0000.0,0003.88,0008.62,0003.48
2021-11-22 05:19:00,,0832.2,5.00,0.00,25.8,24.8,00.0,34.8,27.6,09.2,0000.0,0003.88,0009.34,0003.49
2021-11-22 05:20:00,,0832.2,5.01,0.00,25.8,24.9,00.0,34.8,27.6,09.3,0000.0,0003.88,0009.50,0003.50
2021-11-22 05:21:00,,0832.2,5.00,0.00,25.8,24.9,00.0,34.8,27.6,09.3,0000.0,0003.90,0010.42,0003.50
2021-11-22 05:22:00,,0832.3,5.01,0.00,25.8,24.8,00.0,34.8,27.6,09.3,0000.0,0003.90,0011.10,0003.51
2021-11-22 05:23:00,,0832.3,4.99,0.00,25.8,24.8,00.0,34.8,27.6,09.3,0000.0,0003.91,0012.70,0003.51
2021-11-22 05:24:00,,0832.3,5.00,0.00,25.8,24.8,00.0,34.8,27.5,09.3,0000.0,0003.91,0013.47,0003.53
2021-11-22 05:25:00,,0832.3,5.01,0.00,25.7,24.8,00.0,34.8,27.5,09.3,0000.0,0003.91,0013.61,0003.54
2021-11-22 05:26:00,,0832.2,4.99,0.00,25.7,24.8,00.0,34.8,27.5,09.3,0000.0,0003.91,0013.79,0003.55
2021-11-22 05:27:00,,0832.2,5.00,0.00,25.8,24.8,00.0,34.8,27.5,09.4,0000.0,0003.92,0013.60,0003.56
2021-11-22 05:28:00,,0832.2,5.00,0.00,25.8,24.8,00.0,34.8,27.5,09.5,0000.0,0003.93,0013.01,0003.58
2021-11-22 05:29:00,,0832.2,4.99,0.00,25.8,24.8,00.0,34.8,27.5,09.5,0000.0,0003.92,0012.81,0003.60
2021-11-22 05:30:00,,0832.2,4.99,0.00,25.7,24.8,00.0,34.8,27.5,09.4,0000.0,0003.90,0012.44,0003.60
2021-11-22 05:31:00,,0832.1,5.01,0.00,25.7,24.8,00.0,34.8,27.5,09.3,0000.0,0003.88,0012.12,0003.59
2021-11-22 05:32:00,,0832.1,5.00,0.00,25.7,24.8,00.0,34.8,27.5,09.4,0000.0,0003.86,0011.12,0003.59
2021-11-22 05:33:00,,0832.2,5.01,0.00,25.7,24.8,00.0,34.8,27.5,09.5,0000.0,0003.86,0010.35,0003.58
2021-11-22 05:34:00,,0832.3,5.00,0.00,25.7,24.8,00.0,34.8,27.5,09.5,0000.0,0003.85,0009.02,0003.58
2021-11-22 05:35:00,,0832.2,4.99,0.00,25.7,24.8,00.0,34.8,27.5,09.4,0000.0,0003.84,0008.40,0003.57
2021-11-22 05:36:00,,0832.3,5.01,0.00,25.7,24.8,00.0,34.8,27.5,09.5,0000.0,0003.84,0008.23,0003.56
2021-11-22 05:37:00,,0832.2,5.01,0.00,25.7,24.8,00.0,34.8,27.5,09.5,0000.0,0003.82,0008.61,0003.54
2021-11-22 05:38:00,,0832.3,5.01,0.00,25.7,24.8,00.0,34.7,27.5,09.5,0000.0,0003.81,0008.69,0003.52
2021-11-22 05:39:00,,0832.2,4.98,0.00,25.7,24.8,00.0,34.7,27.5,09.4,0000.0,0003.79,0008.70,0003.50
2021-11-22 05:40:00,,0832.3,5.01,0.00,25.7,24.8,00.0,34.7,27.5,09.1,0000.0,0003.81,0008.84,0003.49
2021-11-22 05:41:00,,0832.3,5.00,0.00,25.7,24.8,00.0,34.7,27.5,09.1,0000.0,0003.80,0008.34,0003.47
2021-11-22 05:42:00,,0832.2,5.00,0.00,25.7,24.8,00.0,34.7,27.5,09.2,0000.0,0003.79,0008.23,0003.46
2021-11-22 05:43:00,,0832.1,5.00,0.00,25.7,24.8,00.0,34.7,27.5,09.2,0000.0,0003.78,0008.25,0003.45
2021-11-22 05:44:00,,0832.1,5.00,0.00,25.7,24.8,00.0,34.7,27.5,09.3,0000.0,0003.77,0008.38,0003.45
2021-11-22 05:45:00,,0832.1,5.01,0.00,25.7,24.8,00.0,34.7,27.5,09.3,0000.0,0003.75,0008.89,0003.44
2021-11-22 05:46:00,,0832.2,5.00,0.00,25.7,24.8,00.0,34.7,27.5,09.3,0000.0,0003.78,0009.25,0003.44
2021-11-22 05:47:00,,0832.2,4.99,0.00,25.7,24.8,00.0,34.7,27.5,09.3,0000.0,0003.80,0009.45,0003.45
2021-11-22 05:48:00,,0832.1,5.01,0.00,25.7,24.8,00.0,34.7,27.5,09.3,0000.0,0003.81,0009.12,0003.46
2021-11-22 05:49:00,,0832.2,4.99,0.00,25.7,24.8,00.0,34.7,27.5,09.2,0000.0,0003.83,0009.23,0003.47
2021-11-22 05:50:00,,0832.2,5.00,0.00,25.7,24.8,00.0,34.7,27.5,09.1,0000.0,0003.83,0009.72,0003.48
2021-11-22 05:51:00,,0832.2,5.00,0.00,25.7,24.7,00.0,34.7,27.5,09.1,0000.0,0003.90,0010.60,0003.55
2021-11-22 05:52:00,,0832.1,5.01,0.00,25.7,24.7,00.0,34.7,27.4,09.1,0000.0,0004.34,0011.89,0003.98
2021-11-22 05:53:00,,0832.1,5.00,0.00,25.7,24.7,00.0,34.7,27.4,09.1,0000.0,0004.67,0012.47,0004.29
2021-11-22 05:54:00,,0832.1,4.99,0.00,25.6,24.7,00.0,34.7,27.4,09.1,0000.0,0004.75,0012.62,0004.36
2021-11-22 05:55:00,,0832.1,5.01,0.00,25.6,24.7,00.0,34.7,27.4,09.1,0000.0,0004.80,0012.75,0004.41
2021-11-22 05:56:00,,0832.2,4.99,0.00,25.6,24.6,00.0,34.7,27.3,09.1,0000.0,0004.84,0012.14,0004.44
2021-11-22 05:57:00,,0832.1,5.02,0.00,25.6,24.6,00.0,34.6,27.3,09.1,0000.0,0004.90,0012.17,0004.48
2021-11-22 05:58:00,,0832.1,4.99,0.00,25.6,24.6,00.0,34.6,27.3,09.1,0000.0,0004.93,0011.61,0004.50
2021-11-22 05:59:00,,0832.1,5.00,0.00,25.6,24.6,00.0,34.6,27.3,09.1,0000.0,0004.94,0011.52,0004.51
